Weather History for Moline, IL

Change the Weather History Date:

Sunday, January 20, 2013

  Actual Average Record
Temperature  
Mean Temperature 17 °F 22 °F  
Max Temperature 22 °F 31 °F 63 °F (1906)
Min Temperature 11 °F 14 °F -21 °F (1985)
Degree Days  
Heating Degree Days 48 43  
Month to date heating degree days 780 849  
Since 1 July heating degree days 3126 3270  
Cooling Degree Days 0 0  
Month to date cooling degree days 0 0  
Year to date cooling degree days 0 0  
Moisture  
Dew Point 6 °F    
Average Humidity 66    
Maximum Humidity 80    
Minimum Humidity 51    
Precipitation  
Precipitation T in 0.05 in 1.83 in (1904)
Month to date precipitation 0.74 0.99  
Year to date precipitation 0.74 0.99  
Snow  
Snow T in 0.30 in - ()
Month to date snowfall 1.6 6.1  
Since 1 July snowfall 6.9 16.6  
Snow Depth T in    
Sea Level Pressure  
Sea Level Pressure 30.32 in    
Wind  
Wind Speed 13 mph (WNW)    
Max Wind Speed 29 mph    
Max Gust Speed 40 mph    
Visibility 9 miles    
Events Snow    
T = Trace of Precipitation, MM = Missing Value Source: NWS Daily Summary

Daily Weather History Graph

Daily Weather History Graph

Search for Another Location

Airport:

Trip Planner

Search our weather history database for the weather conditions in past years. The results will help you decide how hot, cold, wet, or windy it might be!

Date:

Astronomy

Jan. 20, 2013 Rise Set
Actual Time 7:23 AM CST 5:03 PM CST
Civil Twilight 6:53 AM CST 5:33 PM CST
Nautical Twilight 6:19 AM CST 6:07 PM CST
Astronomical Twilight 5:46 AM CST 6:40 PM CST
Moon 12:05 PM CST (1/20) 1:55 AM CST (1/20)
Length of Visible Light 10h 40m
Length of Day
9h 40m
Waxing Gibbous, 66% of the Moon is Illuminated
Jan 20
Waxing Gibbous
Jan 26
Full
Feb 3
Last Quarter
Feb 10
New
Feb 17
First Quarter

Hourly Weather History & Observations

Time (CST) Temp. Windchill Dew Point Humidity Pressure Visibility Wind Dir Wind Speed Gust Speed Precip Events Conditions
12:52 AM 19.0 °F 2.7 °F 5.0 °F 54% 30.18 in 10.0 mi WNW 20.7 mph 35.7 mph N/A   Clear
1:52 AM 18.0 °F 0.9 °F 3.9 °F 54% 30.22 in 10.0 mi WNW 21.9 mph 34.5 mph N/A   Clear
2:52 AM 16.0 °F -1.3 °F 3.9 °F 59% 30.27 in 10.0 mi NW 20.7 mph 33.4 mph N/A   Clear
3:52 AM 14.0 °F -4.3 °F 3.0 °F 62% 30.29 in 10.0 mi NW 21.9 mph 32.2 mph N/A   Clear
4:52 AM 12.9 °F -2.8 °F 3.9 °F 67% 30.30 in 10.0 mi NW 15.0 mph - N/A   Clear
5:52 AM 12.0 °F -1.3 °F 1.9 °F 64% 30.32 in 10.0 mi NW 10.4 mph 24.2 mph N/A   Clear
6:52 AM 10.9 °F -4.1 °F 1.9 °F 67% 30.35 in 10.0 mi NW 12.7 mph - N/A   Clear
7:52 AM 10.9 °F -3.4 °F 1.0 °F 64% 30.35 in 10.0 mi NW 11.5 mph - N/A   Clear
8:52 AM 12.9 °F 0.7 °F 3.0 °F 65% 30.36 in 10.0 mi NW 9.2 mph - N/A   Scattered Clouds
9:52 AM 14.0 °F 2.0 °F 3.0 °F 62% 30.39 in 10.0 mi WNW 9.2 mph - N/A   Overcast
10:52 AM 17.1 °F 3.0 °F 3.9 °F 56% 30.39 in 10.0 mi NW 13.8 mph - N/A   Mostly Cloudy
11:52 AM 17.1 °F 3.6 °F 3.0 °F 54% 30.38 in 10.0 mi NW 12.7 mph - N/A   Overcast
12:52 PM 18.0 °F 6.9 °F 3.0 °F 52% 30.35 in 10.0 mi WNW 9.2 mph - N/A   Overcast
1:52 PM 18.0 °F 6.1 °F 7.0 °F 62% 30.36 in 8.0 mi WNW 10.4 mph - 0.00 in   Overcast
2:52 PM 18.0 °F 3.1 °F 7.0 °F 62% 30.35 in 10.0 mi NW 16.1 mph - N/A   Overcast
3:43 PM 17.6 °F 5.7 °F 6.8 °F 63% 30.31 in 10.0 mi WNW 10.4 mph - 0.00 in   Overcast
3:52 PM 18.0 °F 6.9 °F 8.1 °F 65% 30.35 in 10.0 mi WNW 9.2 mph - 0.00 in   Overcast
4:31 PM 17.6 °F 5.0 °F 8.6 °F 68% 30.32 in 2.5 mi WNW 11.5 mph - 0.00 in Snow Light Snow
4:52 PM 17.1 °F 6.6 °F 10.9 °F 77% 30.35 in 1.5 mi WNW 8.1 mph - 0.00 in Snow Light Snow
5:35 PM 15.8 °F 3.4 °F 10.4 °F 79% 30.31 in 6.0 mi WNW 10.4 mph - 0.01 in Snow Light Snow
5:52 PM 16.0 °F 5.3 °F 10.9 °F 81% 30.34 in 3.0 mi WNW 8.1 mph - 0.01 in Snow Light Snow
6:52 PM 15.1 °F 4.2 °F 9.0 °F 77% 30.35 in 10.0 mi WNW 8.1 mph - 0.00 in   Overcast
7:02 PM 15.8 °F 5.1 °F 8.6 °F 73% 30.31 in 10.0 mi WNW 8.1 mph - N/A   Overcast
7:52 PM 15.1 °F 1.8 °F 7.0 °F 70% 30.34 in 10.0 mi WNW 11.5 mph - 0.00 in   Overcast
8:10 PM 15.8 °F 2.1 °F 6.8 °F 68% 30.30 in 10.0 mi WNW 12.7 mph - N/A   Overcast
8:52 PM 14.0 °F 0.5 °F 7.0 °F 74% 30.33 in 10.0 mi WNW 11.5 mph - N/A   Overcast
9:12 PM 14.0 °F -0.8 °F 6.8 °F 73% 30.29 in 10.0 mi West 13.8 mph - N/A   Overcast
9:52 PM 12.9 °F -0.9 °F 6.1 °F 74% 30.32 in 10.0 mi WNW 11.5 mph - N/A   Scattered Clouds
10:52 PM 12.0 °F -4.5 °F 5.0 °F 73% 30.32 in 10.0 mi WNW 16.1 mph 20.7 mph N/A   Scattered Clouds
11:28 PM 12.2 °F -3.1 °F 5.0 °F 73% 30.28 in 10.0 mi WNW 13.8 mph 19.6 mph N/A   Mostly Cloudy
11:52 PM 12.9 °F -0.9 °F 6.1 °F 74% 30.32 in 9.0 mi West 11.5 mph - 0.00 in Snow Light Snow